User: anonymous   Login
Location: Allentsteig
(48.6833°N, 15.3167°E)
Time: 08:55:54
(UTC+00:00)
Language:

Cosmos 1844 Rocket - Orbit

View from above orbital plane
View from above orbital plane
View from above satellite
View from above satellite

Ground track
Ground track

The orbit data is extracted from the following two-line orbital elements,

1 17974U 87041B   21209.86566174  .00000191  00000-0  11832-3 0  9994
2 17974  71.0096 343.7446 0016071 260.4588 267.7991 14.17275984769586
Epoch (UTC): 28 July 2021 20:46:33
Eccentricity: 0.0016071
inclination: 71.0096°
perigee height: 823 km
apogee height: 846 km
right ascension of ascending node: 343.7446°
argument of perigee: 260.4588°
revolutions per day: 14.17275984
mean anomaly at epoch: 267.7991°
orbit number at epoch: 76958

The dashed part of the orbit path shows where the satellite is in the earth's shadow,  

DLR